Weather in Stanovoy Kolodez

Russia / Oryol Oblast     52°49′15″N   36°15′50″E
temp.,
°C
wind,
m/s
gust,
m/s
humid.,
%
clouds,
%
prec.,
mm/h
press.,
hPa
HPBL,
m
7 march, sun
sun700:00−12wsw44890 0.0 102073
03:00−12sw510920 0.0 1018189
06:00−10sw6148931 0.0 1015309
09:00−7sw9178265 0.0 1012635
12:00−3sw111884100 0.0 10071061
15:00−2wsw121991100 0.2 10031239
18:00−1wsw101891100 0.6 10011238
21:00−1wnw101592100 1.4 10021026
8 march, mon
mon800:00−5w5118699 0.1 1003246
03:00−5wsw5128798 0.1 1003280
06:00−6wsw51487100 0.0 1002368
09:00−6w6139393 0.0 1003595
12:00−4wnw6108787 0.0 1005898
15:00−3w588494 0.1 1007968
18:00−7w348973 0.1 100843
21:00−9nw349058 0.1 101040
9 march, tue
tue900:00−10nw239688 0.1 101123
03:00−10nw349693 0.2 1012120
06:00−11nnw4995100 0.2 1014270
09:00−13nnw489594 0.3 1016260
12:00−11nnw479095 0.0 1018521
15:00−10nw468598 0.0 1019753
18:00−11nw2392100 0.1 102038
21:00−13nnw229599 0.1 102221
10 march, wed
wed1000:00−16nw239681 0.0 102420
03:00−17wnw229854 0.0 102520
06:00−17wsw229755 0.0 102520
09:00−14ssw239576 0.1 1026119
12:00−10ssw3594100 0.6 1025355
15:00−7sw2494100 1.5 1025334
18:00−7ne1296100 1.3 1024198
21:00−12e61094100 2.7 1026321
11 march, thu
thu1100:00−15e5994100 0.4 1027302
03:00−17e599294 0.5 1029241
06:00−21e498661 0.0 1030142
09:00−20ese598657 0.0 1031225
12:00−16ese47842 0.0 1031268
15:00−14ese46841 0.0 1031320
18:00−17ese46920 0.0 103192
21:00−19se47920 0.0 1032100